Location: Paderno d�Adda
(45.6667°N, 9.4333°E)
Time: 01:22:33
(UTC+00:00)

Cosmos 2279 Rocket - Pass Details

Date: 19 September 2020
Orbit: 964 x 979 km, 82.9° (Epoch: 26 October)

Event Time Altitude Azimuth Distance (km) Brightness Sun altitude
Exits shadow 20:44:33 69° 310° (NW) 1,045 4.2 -32.6°
Drops below altitude 10° 20:50:24 10° 5° (N) 2,742 6.8 -33.4°
Sets 20:52:56 0° 7° (N) 3,694 7.5 -33.7°
